Location: Spring Creek
(38.2870°N, 100.2160°W)
Time: 23:41:00
(UTC+00:00)

Meteor 2-10 - Pass Details

Date: 08 May 2021
Orbit: 737 x 869 km, 81.2° (Epoch: 24 June)

Event Time Altitude Azimuth Distance (km) Brightness Sun altitude
Rises 08:52:23 0° 345° (NNW) 3,355 7.8 -26.1°
Reaches altitude 10° 08:54:52 10° 340° (NNW) 2,398 6.9 -25.8°
Enters shadow 08:59:28 48° 289° (WNW) 1,029 4.4 -25.3°
